Weather History for Cut Bank, MT

Change the Weather History Date:

Tuesday, December 25, 2012

  Actual Average Record
Temperature  
Mean Temperature -10 °F 21 °F  
Max Temperature 1 °F 32 °F 56 °F (2005)
Min Temperature -22 °F 11 °F -31 °F (1983)
Degree Days  
Heating Degree Days 75 44  
Month to date heating degree days 1076 1066  
Since 1 July heating degree days 3216 3329  
Cooling Degree Days 0 0  
Month to date cooling degree days 0 0  
Year to date cooling degree days 210 162  
Moisture  
Dew Point -11 °F    
Average Humidity 83    
Maximum Humidity 90    
Minimum Humidity 75    
Precipitation  
Precipitation 0.00 in 0.00 in 0.13 in (1937)
Month to date precipitation 0.18 0.17  
Year to date precipitation 9.03 10.85  
Snow  
Snow 0.00 in - - ()
Snow Depth -    
Sea Level Pressure  
Sea Level Pressure 30.35 in    
Wind  
Wind Speed 5 mph (ESE)    
Max Wind Speed 12 mph    
Max Gust Speed 13 mph    
Visibility 10 miles    
Events      
T = Trace of Precipitation, MM = Missing Value Source: NWS Daily Summary

Daily Weather History Graph

Daily Weather History Graph

Search for Another Location

Airport:

Trip Planner

Search our weather history database for the weather conditions in past years. The results will help you decide how hot, cold, wet, or windy it might be!

Date:

Astronomy

Dec. 25, 2012 Rise Set
Actual Time 8:21 AM MST 4:38 PM MST
Civil Twilight 7:44 AM MST 5:15 PM MST
Nautical Twilight 7:03 AM MST 5:56 PM MST
Astronomical Twilight 6:25 AM MST 6:34 PM MST
Moon 2:53 PM MST (12/25) 5:52 AM MST (12/25)
Length of Visible Light 9h 31m
Length of Day
8h 17m
Waxing Gibbous, 94% of the Moon is Illuminated
Dec 25
Waxing Gibbous
Dec 28
Full
Jan 4
Last Quarter
Jan 11
New
Jan 18
First Quarter

Hourly Weather History & Observations

Time (MST) Temp. Windchill Dew Point Humidity Pressure Visibility Wind Dir Wind Speed Gust Speed Precip Events Conditions
12:56 AM -13.0 °F - -16.1 °F 86% 30.54 in 9.0 mi Calm Calm - N/A   Clear
1:56 AM -18.9 °F -29.5 °F -24.0 °F 78% 30.55 in 10.0 mi NNE 3.5 mph - N/A   Scattered Clouds
2:56 AM -20.0 °F - -25.1 °F 78% 30.56 in 10.0 mi Calm Calm - N/A   Clear
3:56 AM -16.1 °F -28.6 °F -20.9 °F 79% 30.54 in 10.0 mi North 4.6 mph - N/A   Mostly Cloudy
4:56 AM -13.0 °F -22.7 °F -18.0 °F 78% 30.52 in 10.0 mi North 3.5 mph - N/A   Overcast
5:56 AM -11.0 °F - -15.0 °F 83% 30.51 in 10.0 mi Calm Calm - N/A   Overcast
6:56 AM -8.0 °F - -11.9 °F 83% 30.50 in 10.0 mi Calm Calm - N/A   Overcast
7:56 AM -6.0 °F -14.7 °F -9.9 °F 83% 30.48 in 10.0 mi SE 3.5 mph - N/A   Overcast
8:56 AM -5.1 °F -13.6 °F -9.9 °F 80% 30.47 in 10.0 mi SE 3.5 mph - N/A   Overcast
9:56 AM -4.0 °F -14.6 °F -8.0 °F 83% 30.44 in 10.0 mi SE 4.6 mph - N/A   Overcast
10:56 AM -2.9 °F -15.0 °F -7.1 °F 82% 30.45 in 10.0 mi SE 5.8 mph - N/A   Overcast
11:56 AM -0.9 °F -14.1 °F -6.0 °F 79% 30.39 in 10.0 mi SSE 6.9 mph - N/A   Overcast
12:56 PM -0.0 °F -14.2 °F -5.1 °F 79% 30.36 in 10.0 mi SE 8.1 mph - N/A   Overcast
1:56 PM 1.0 °F -15.8 °F -5.1 °F 75% 30.34 in 10.0 mi SE 11.5 mph - N/A   Mostly Cloudy
2:56 PM -0.0 °F -15.3 °F -6.0 °F 76% 30.33 in 10.0 mi ESE 9.2 mph - N/A   Clear
3:56 PM -4.0 °F -16.3 °F -9.0 °F 79% 30.31 in 10.0 mi East 5.8 mph - N/A   Clear
4:56 PM -6.0 °F -18.6 °F -9.9 °F 83% 30.30 in 10.0 mi ESE 5.8 mph - N/A   Clear
5:56 PM -6.0 °F - -11.0 °F 79% 30.29 in 10.0 mi Calm Calm - N/A   Partly Cloudy
6:56 PM -6.0 °F -14.7 °F -9.9 °F 83% 30.27 in 10.0 mi SE 3.5 mph - N/A   Partly Cloudy
7:56 PM -7.1 °F -18.1 °F -9.9 °F 87% 30.26 in 10.0 mi SE 4.6 mph - N/A   Scattered Clouds
8:56 PM -6.0 °F -21.5 °F -9.0 °F 87% 30.24 in 10.0 mi SSE 8.1 mph - N/A   Overcast
9:43 PM -7.6 °F -20.6 °F -9.4 °F 92% 29.92 in 10.0 mi ESE 5.8 mph - N/A   Mostly Cloudy
9:56 PM -7.1 °F -21.4 °F -11.0 °F 83% 30.21 in 10.0 mi ESE 6.9 mph - N/A   Mostly Cloudy
10:09 PM -7.6 °F -18.8 °F -9.4 °F 92% 29.92 in 10.0 mi SE 4.6 mph - N/A   Mostly Cloudy
10:56 PM -6.0 °F -20.1 °F -9.9 °F 83% 30.20 in 10.0 mi ESE 6.9 mph - N/A   Overcast
11:56 PM -5.1 °F -13.6 °F -9.0 °F 83% 30.16 in 10.0 mi SSE 3.5 mph - N/A   Overcast